Laurent Verva

Laurent Verva

Statistiques 2026

  • Courses courues : 135
  • Nb de victoires : 2
  • Nb de places : 12
  • Écart gagnant : -
  • Réussite à la gagne : 1%
  • Réussite à la place : 9%
Musique : 1a 5a 6a 5a 8a 4a 6a Da Da 0a 4a 0a 8a 9a Da Da 1a Da
DateRangCatégorieAlloc.Dist.HippodromeChevalRed. KmSpé.
04/10/14 6 Trot 15 000€ 2 400m Amiens Aria de Corday 1'17"8 Attelé
04/10/14 3 Trot 16 000€ 2 400m Amiens Volvering d'Agen 1'17"0 Attelé
04/10/14 5 Trot 16 000€ 2 900m Amiens Ulinou 1'17"1 Attelé
04/10/14 2 Trot 16 000€ 2 400m Amiens Vague Bleue 1'18"0 Attelé
15/10/14 6 Trot 21 000€ 2 400m Amiens Borneo de Bouteau 1'17"1 Attelé
15/10/14 2 Trot 21 000€ 2 400m Amiens Altesse d'Ardennes 1'16"1 Attelé
15/10/14 D Trot 20 000€ 2 400m Amiens Vague Bleue Attelé
17/10/14 8 Trot 20 000€ 2 400m Amiens Arley d'heripre 1'17"4 Attelé
17/10/14 0 Trot 21 000€ 2 400m Amiens Victoire du Jaguy Attelé
09/11/14 9 Trot 25 000€ 2 400m Amiens Smash Verone 1'16"0 Attelé
09/11/14 9 Trot 16 000€ 2 900m Amiens Volcan de Jaudrais 1'16"5 Attelé
09/11/14 8 Trot 16 000€ 2 400m Amiens All Star de Foot 1'17"1 Attelé
09/11/14 4 Trot 16 000€ 2 400m Amiens Ariaka 1'16"6 Attelé
16/11/14 D Trot 25 000€ 2 925m Amiens Sonny de Vive Attelé
16/11/14 4 Trot 15 000€ 2 400m Amiens Abricot du Lion 1'17"0 Attelé
26/11/14 8 Trot 20 000€ 2 400m Amiens Borea de Bomo 1'18"5 Attelé
17/03/15 5 Trot 27 000€ 2 900m Amiens Victor de Latour 1'16"6 Attelé
17/03/15 9 Trot 19 000€ 2 400m Amiens Borea de Bomo 1'17"7 Attelé
17/03/15 6 Trot 19 000€ 2 400m Amiens Bagdad du Tijas 1'16"2 Attelé
11/04/15 4 Trot 21 000€ 2 400m Amiens Altesse d'Ardennes 1'16"9 Attelé
11/04/15 D Trot 19 000€ 2 400m Amiens Belem Peneme Attelé
17/04/15 D Trot 15 000€ 2 925m Amiens Antonio de Goulet Attelé
17/04/15 D Trot 15 000€ 2 400m Amiens Barack Syga Attelé
17/04/15 0 Trot 28 000€ 2 400m Amiens Sonny de Vive Attelé
17/04/15 D Trot 15 000€ 2 400m Amiens Begum du Bouffey Attelé
24/04/15 8 Trot 15 000€ 2 400m Amiens Borneo de Bouteau 1'16"8 Attelé
24/04/15 7 Trot 16 000€ 2 900m Amiens Ariaka 1'18"0 Attelé
24/04/15 7 Trot 15 000€ 2 400m Amiens Belle de Neulliac 1'17"1 Attelé
24/04/15 9 Trot 15 000€ 2 400m Amiens Bella Jet 1'19"5 Attelé
24/04/15 2 Trot 15 000€ 2 400m Amiens Venus du Rosay 1'15"5 Attelé
15/05/15 D Trot 15 000€ 2 400m Amiens Begum du Bouffey Attelé
15/05/15 0 Trot 16 000€ 2 900m Amiens Arley d'heripre Attelé
26/05/15 8 Trot 20 000€ 2 400m Amiens Borneo de Bouteau 1'16"7 Attelé
06/03/19 8 Trot 16 000€ 2 400m Amiens Fayette Tilly 1'18"0 Attelé lire

Après avoir bien figuré, a complètement cédé pour finir.

24/03/19 4 Trot 15 000€ 2 900m Amiens Espoir des Ventes 1'17"7 Attelé
24/03/19 D Trot 13 000€ 2 400m Amiens Falco d'Alci Attelé
27/04/19 0 Trot 13 000€ 2 400m Amiens Falco d'Alci Attelé
27/04/19 8 Trot 17 000€ 2 400m Amiens Dario de la Besvre 1'16"0 Attelé
27/04/19 5 Trot 20 000€ 2 400m Amiens Au Temps Dubonheur 1'14"3 Attelé
27/04/19 6 Trot 17 000€ 2 900m Amiens Emile de Jal 1'18"2 Attelé
18/05/19 D Trot 13 000€ 2 400m Amiens Frivole d'Arbaz Attelé
27/05/19 3 Trot 18 000€ 2 400m Amiens Fortune de Cerisy 1'17"1 Attelé lire

Après avoir figuré, est venue prendre la troisième place près du but.

01/06/19 D Trot 13 000€ 2 400m Amiens Fysalia Attelé
11/06/19 5 Trot 16 000€ 2 400m Amiens Felinara 1'17"1 Attelé
11/06/19 2 Trot 20 000€ 2 400m Amiens Daisy de la Folie 1'15"2 Attelé
06/07/19 D Trot 13 000€ 2 400m Amiens Gatoune de l'Ancre Attelé
06/07/19 4 Trot 12 000€ 2 900m Amiens Filae des Salines 1'18"5 Attelé
06/07/19 3 Trot 12 000€ 2 900m Amiens Filou de Fromiee 1'18"5 Attelé
24/07/19 5 Trot 19 000€ 2 400m Amiens Daisy de la Folie 1'15"4 Attelé
24/07/19 3 Trot 17 000€ 2 400m Amiens Fortune de Cerisy 1'17"2 Attelé